Voltar ao catálogo

COSMOS 1174

AtivoMilitarLEO
NORAD 11765·PAYLOAD·🇷🇺 Russia

Lançado Apr 18, 1980 de Baikonur Cosmodrome

Loading…

Próximas Passagens (próximas 24 horas)

TLE

AtualizadoSource: Space-Track

Época: Sep 14, 2026, 19:10 UTC

1 11765U 80030A   26257.79872677  .00001879  00000-0  92859-4 0  9998
2 11765  66.0812 332.5770 0465348  49.6177 314.4589 14.58607162391991

Acompanhe COSMOS 1174 em tempo real com AllMySat

Download on the App Store